Location: Oshawa
(43.9000°N, 78.8670°W)
Time: 20:51:38
(UTC-05:00)

CARTOSAT-1 - Pass Details

Date: 21 August 2017
Orbit: 618 x 619 km, 97.8° (Epoch: 24 November)

Event Time Altitude Azimuth Distance (km) Brightness Sun altitude
Exits shadow 23:08:29 54° 1° (N) 757 4.1 -27.0°
Drops below altitude 10° 23:11:53 10° 350° (N) 1,993 7.0 -27.4°
Sets 23:14:05 0° 349° (N) 2,904 8.0 -27.6°
